Location: Baia Mare
(47.6567°N, 23.5850°E)
Time: 23:39:28
(UTC+03:00)

ISS - Pass Details

Date: 20 July 2018
Orbit: 402 x 408 km, 51.6° (Epoch: 22 July)

Event Time Altitude Azimuth Distance (km) Brightness Sun altitude
Rises 23:10:16 0° 238° (WSW) 2,312 0.0 -14.7°
Reaches altitude 10° 23:12:20 10° 235° (SW) 1,457 -1.0 -14.9°
Maximum altitude 23:15:35 69° 152° (SSE) 437 -4.0 -15.2°
Drops below altitude 10° 23:18:51 10° 69° (ENE) 1,467 -1.1 -15.5°
Sets 23:20:57 0° 67° (ENE) 2,331 -0.1 -15.7°
